Starlink 3302

operational
NORAD ID: 50842 Int'l Des: 2022-001 Owner: SPXS Country: US Constellation: starlink
LEOCIRCULAR

Über Starlink 3302

Beschreibung wird geladen...

Live-Position

3D-Globus wird geladen...

Nächste Überflüge

Höhenverlauf

Altitude vs Time

uPlot chart will show altitude changes over time

Zweizeiliger Elementsatz

1 50842U 22001AR 25306.49510634 .00000466 00000-0 47329-4 0 9997
2 50842 53.2184 30.1171 0000886 80.5846 279.5247 15.08841063211051
Epoch: 2. Nov. 2025 • Age: 39 hours

Aktueller Status

Höhe 557.9 km
Geschwindigkeit 7.58 km/s
Subsatellitenpunkt -50.68°S, 176.93°E
Startdatum 6. Jan. 2022
Alter 3.8 years
Typ internet

Technische Details

Klassifizierung Payload
Masse 297.00 kg
Trockenmasse 275.00 kg
Gesamtmasse 297.00 kg
Länge 0.20 m
Durchmesser 2.80 m
Spannweite 9.00 m
Form Box + pan
Hersteller SPXS
Bus-Typ Starlink
Phasenstatus In Orbit
Besitzer/Staat SPXS/US

Große Konstellationen

Loading constellations...